[ hide orbit diagram ]
For accurate long-term ephemerides, please instead use our Horizons system.This orbit viewer was implemented using two-body methods, and hence should not be used for determining accurate long-term trajectories (over several years or decades) or planetary encounter circumstances.
Orbital Elements at Epoch 2459000.5 (2020-May-31.0) TDB
Reference: JPL 22 (heliocentric ecliptic J2000)
Element | Value | Uncertainty (1-sigma) | Units |
e | .09951932558234575 | 4.1113e-08 | |
a | 2.378087272564129 | 1.0425e-08 | au |
q | 2.141421631022587 | 1.0242e-07 | au |
i | 9.063065894450679 | 4.1136e-06 | deg |
node | 226.2130364844075 | 2.3971e-05 | deg |
peri | 44.77741816924658 | 3.3644e-05 | deg |
M | 300.9095277258049 | 2.6374e-05 | deg |
tp | 2459220.364478503891 (2021-Jan-05.86447850) | 9.8825e-05 | TDB |
period | 1339.49195555789 3.67 | 8.808e-06 2.411e-08 | d yr |
n | .2687586129250492 | 1.7672e-09 | deg/d |
Q | 2.614752914105671 | 1.1462e-08 | au |
|
| | Orbit Determination Parameters
Additional Information
|
[ show covariance matrix ]
Physical Parameter Table
Parameter |
Symbol |
Value |
Units |
Sigma |
Reference |
Notes |
absolute magnitude |
H |
15.7 |
|
n/a |
MPO468645 |
|
diameter |
diameter |
2.766 |
km |
0.129 |
urn:nasa:pds:neowise_diameters_albedos::2.0[mainbelt] (http://adsabs.harvard.edu/abs/2011ApJ...741...68M) |
|
geometric albedo |
albedo |
0.146 |
|
0.023 |
urn:nasa:pds:neowise_diameters_albedos::2.0[mainbelt] (http://adsabs.harvard.edu/abs/2011ApJ...741...68M) |
|
|
70521 (1999 TF109) Discovered 1999-Oct-04 by LINEAR at Socorro |
Reference: 20031109/Numbers.arc | Last Updated: 2004-04-19 |
|
[ show close-approach data ]
|